Current weather by "City, St" or "zip code"  
 

Current Conditions: Truth Or Consequences, Truth Or Consequences Municipal Airport, NM

Fair


75.0 F

Last Updated on Sep 18 2020, 10:53 am MDT
Humidity: 31%
Wind Speed: N 0.0 mph
Barometer 30.33 in
Dewpoint: 42.1 F
Visibility: 10.00 mi
Precip: --
Heat Index: NA
Wind Chill: NA
Current conditions at:

Truth Or Consequences, Truth Or Consequences Municipal Airport, NM (KTCS)

Lat: 33.23667 Lon: 107.26806

Local Radar Image active severe weather and emergency alerts image image weather storm and storm spotter reports image weather observation monitoring service image
Local
Radar
Active
Alerts
Storm Reports Obs
Monitoring

Sign-up For Email & Text Message Weather Alert Notification Services



Advertise Here

Observation History for Truth Or Consequences, Truth Or Consequences Municipal Airport, NM


Time Wind
(mph)
Vis
(mi)
Weather Precip (in) Temperature (F) Relative
Humidity
Wind
Chill
(F)
Heat
Index
(F)
Pressure
Air Dwpt altimeter
(in)
sea level
(mb)
Rmks
10:53 am MDT N 0.0 10.00 Fair -- 75.0 42.1 31% NA NA 30.33 1019.5
9:53 am MDT NE 6.9 10.00 Fair -- 71.0 41.0 34% NA NA 30.33 1019.5
8:53 am MDT NE 6.9 10.00 Fair -- 68.0 39.0 35% NA NA 30.32 1019.4
7:53 am MDT NW 6.9 10.00 Fair -- 60.0 35.1 39% 59 NA 30.30 1019.4
6:53 am MDT NW 8.1 10.00 Fair -- 57.0 34.0 42% 55 NA 30.28 1018.5
5:53 am MDT NW 8.1 10.00 Fair -- 58.0 34.0 41% 56 NA 30.27 1017.6
4:53 am MDT NW 6.9 10.00 Fair -- 59.0 34.0 39% 58 NA 30.26 1017.0
3:53 am MDT N 6.9 10.00 Fair -- 62.0 34.0 35% 62 NA 30.25 1016.3
2:53 am MDT N 6.9 10.00 Fair -- 63.0 34.0 34% 63 NA 30.25 1016.4
1:53 am MDT W 5.8 10.00 Fair -- 62.0 34.0 35% 62 NA 30.26 1016.7
12:53 am MDT NW 3.5 10.00 Fair -- 65.0 35.1 33% NA NA 30.26 1016.6
11:53 pm MDT N 6.9 10.00 Fair -- 67.0 35.1 31% NA NA 30.25 1016.2
10:53 pm MDT NW 5.8 10.00 Fair -- 68.0 35.1 30% NA NA 30.24 1016.2
9:53 pm MDT N 4.6 10.00 Fair -- 73.0 35.1 25% NA NA 30.23 1015.6
8:53 pm MDT NW 4.6 10.00 Fair -- 73.0 35.1 25% NA NA 30.22 1015.6
7:53 pm MDT N 4.6 10.00 Fair -- 75.0 35.1 23% NA NA 30.20 1015.3
6:53 pm MDT NE 6.9 10.00 Fair -- 81.0 30.9 16% NA 79 30.19 1014.3
5:53 pm MDT NE 8.1 10.00 Fair -- 84.0 32.0 15% NA 81 30.19 1013.7
4:53 pm MDT NE 9.2 10.00 Fair -- 85.0 34.0 16% NA 82 30.20 1014.1
3:53 pm MDT NE 11.5 G 21.9 10.00 Fair -- 86.0 35.1 16% NA 83 30.21 1014.3
2:53 pm MDT NE 12.7 G 20.7 10.00 Fair -- 84.0 35.1 17% NA 81 30.24 1015.2
1:53 pm MDT NE 13.8 G 23.0 10.00 Fair -- 84.0 34.0 17% NA 81 30.26 1016.1
12:53 pm MDT 6.9 G 20.7 10.00 Fair -- 81.0 37.0 21% NA 79 30.29 1017.3
11:53 am MDT NE 16.1 G 24.2 10.00 Fair -- 80.0 39.0 23% NA 79 30.32 1018.2

Regional Weather Observation


Socorro Municipal Airport, NM (KONM)

Fair
71.0 F

Deming Municipal Airport, NM (KDMN)

Fair
77.0 F

Grant County Airport, NM (KSVC)

Fair
73.0 F

Las Cruces, Las Cruces International Airport, NM (KLRU)

Fair
76.0 F

Holloman Air Force Base, NM (KHMN)

Fair
76.0 F

Belen Alexander Muni Airport, NM (KE80)

Fair
54.0 F